Location: Bletchingley
(51.2333°N, 0.1000°W)
Time: 14:21:25
(UTC+00:00)

Cosmos 2266 Rocket - Pass Details

Date: 23 January 2021
Orbit: 934 x 1008 km, 82.9° (Epoch: 05 March)

Event Time Altitude Azimuth Distance (km) Brightness Sun altitude
Rises 07:02:06 0° 349° (N) 3,625 6.7 -7.5°
Reaches altitude 10° 07:04:36 10° 349° (N) 2,669 6.0 -7.2°
Maximum altitude 07:10:42 87° 261° (W) 945 4.0 -6.3°
Drops below altitude 10° 07:16:43 10° 174° (S) 2,639 6.7 -5.4°
Sets 07:19:11 0° 174° (S) 3,580 7.4 -5.1°
